Orange, MA

8:35 PM EDT on September 21, 2019 (GMT -0400)
Orange Municipal

Weather History for KORE - August, 2019

Change the Weather History Date:

Thursday, August 22, 2019

  Actual Average Record
Temperature  
Mean Temperature 75 °F -  
Max Temperature 87 °F 77 °F 89 °F (2003)
Min Temperature 64 °F 54 °F 43 °F (2007)
Cooling Degree Days 10    
Growing Degree Days 25 (Base 50)    
Moisture  
Dew Point 64 °F    
Average Humidity 78    
Maximum Humidity 97    
Minimum Humidity 43    
Precipitation  
Precipitation 0.00 in - - ()
Sea Level Pressure  
Sea Level Pressure 29.87 in    
Wind  
Wind Speed 2 mph ()    
Max Wind Speed 14 mph    
Max Gust Speed 18 mph    
Visibility 5.7 miles    
Events Fog    
Averages and records for this station are not official NWS values.
T = Trace of Precipitation, MM = Missing Value Source: Averaged Metar Reports

Daily Weather History Graph

Daily Weather History Graph

Search for Another Location

Airport or City:

Astronomy

Aug. 22, 2019 Rise Set
Actual Time 6:03 AM EDT 7:40 PM EDT
Civil Twilight 5:33 AM EDT 8:09 PM EDT
Nautical Twilight 4:57 AM EDT 8:45 PM EDT
Astronomical Twilight 4:18 AM EDT 9:24 PM EDT
Moon 11:19 PM EDT 12:44 PM EDT
Length of Visible Light 14h 36m
Length of Day
13h 37m
Waning Gibbous, 60% of the Moon is Illuminated
Aug 22
Waning Gibbous
Aug 23
Last Quarter
Aug 30
New
Sep 5
First Quarter
Sep 14
Full

Hourly Weather History & Observations

Time (EDT) Temp. Heat Index Dew Point Humidity Pressure Visibility Wind Dir Wind Speed Gust Speed Precip Events Conditions
12:52 AM 68.0 °F - 64.9 °F 90% 29.87 in 10.0 mi South 5.8 mph - N/A   Clear
1:52 AM 66.0 °F - 64.0 °F 93% 29.85 in 5.0 mi Calm Calm - N/A   Clear
2:00 AM 66.0 °F - 64.0 °F 93% 29.86 in 1.5 mi Calm Calm - N/A   Clear
2:02 AM 66.0 °F - 64.0 °F 93% 29.86 in 1.0 mi Calm Calm - N/A   Clear
2:09 AM 64.9 °F - 63.0 °F 93% 29.86 in 0.5 mi Calm Calm - N/A Fog Fog
2:28 AM 64.0 °F - 63.0 °F 96% 29.85 in 0.8 mi Calm Calm - N/A   Mist
2:37 AM 64.0 °F - 62.1 °F 93% 29.85 in 1.2 mi NNW 3.5 mph - N/A   Partly Cloudy
2:44 AM 64.0 °F - 62.1 °F 93% 29.85 in 0.8 mi NW 3.5 mph - N/A   Mist
2:52 AM 64.9 °F - 63.0 °F 93% 29.84 in 0.8 mi NW 3.5 mph - N/A   Mist
3:07 AM 64.0 °F - 63.0 °F 96% 29.84 in 1.5 mi Calm Calm - N/A   Partly Cloudy
3:14 AM 64.0 °F - 62.1 °F 93% 29.85 in 3.0 mi South 4.6 mph - N/A   Partly Cloudy
3:45 AM 64.9 °F - 63.0 °F 93% 29.85 in 1.8 mi Calm Calm - N/A   Scattered Clouds
3:47 AM 64.4 °F - 62.6 °F 94% 29.85 in 1.2 mi Calm Calm - N/A   Mostly Cloudy
3:49 AM 64.4 °F - 62.6 °F 94% 29.85 in 0.8 mi Calm Calm - N/A   Mist
3:52 AM 64.9 °F - 63.0 °F 93% 29.84 in 0.5 mi Calm Calm - N/A Fog Fog
4:52 AM 64.9 °F - 63.0 °F 93% 29.84 in 0.2 mi Calm Calm - N/A Fog Fog
5:52 AM 64.9 °F - 63.0 °F 93% 29.84 in 0.5 mi Calm Calm - N/A Fog Fog
6:52 AM 66.0 °F - 64.0 °F 93% 29.86 in 0.2 mi North - - N/A Fog Fog
7:42 AM 66.9 °F - 66.0 °F 97% 29.87 in 1.2 mi Calm Calm - N/A   Overcast
7:46 AM 68.0 °F - 66.2 °F 94% 29.87 in 2.0 mi Calm Calm - N/A   Overcast
8:24 AM 68.0 °F - 66.9 °F 96% 29.87 in 2.5 mi Calm Calm - N/A   Overcast
8:34 AM 69.1 °F - 66.9 °F 93% 29.88 in 5.0 mi Calm Calm - N/A   Overcast
8:52 AM 70.0 °F - 68.0 °F 93% 29.87 in 4.0 mi Calm Calm - N/A   Overcast
9:28 AM 72.0 °F - 69.1 °F 91% 29.88 in 10.0 mi Calm Calm - N/A   Overcast
9:52 AM 77.0 °F - 70.0 °F 79% 29.88 in 10.0 mi Calm Calm - N/A   Mostly Cloudy
10:07 AM 77.0 °F - 70.0 °F 79% 29.88 in 10.0 mi Calm Calm - N/A   Scattered Clouds
10:52 AM 80.1 °F 83.6 °F 71.1 °F 74% 29.87 in 10.0 mi Calm Calm - N/A   Mostly Cloudy
11:23 AM 82.0 °F 84.9 °F 68.0 °F 62% 29.88 in 10.0 mi Variable 3.5 mph - N/A   Scattered Clouds
11:42 AM 81.0 °F 83.3 °F 66.9 °F 62% 29.88 in 10.0 mi NW 8.1 mph - N/A   Mostly Cloudy
11:49 AM 82.4 °F 84.6 °F 66.2 °F 58% 29.88 in 10.0 mi WNW 6.9 mph - N/A   Scattered Clouds
11:52 AM 82.0 °F 84.5 °F 66.9 °F 60% 29.88 in 10.0 mi NW 11.5 mph - N/A   Scattered Clouds
12:52 PM 84.0 °F 86.3 °F 66.0 °F 55% 29.86 in 10.0 mi WNW 10.4 mph 18.4 mph N/A   Partly Cloudy
1:52 PM 84.9 °F 86.1 °F 64.0 °F 49% 29.86 in 10.0 mi WNW 13.8 mph - N/A   Partly Cloudy
2:52 PM 84.0 °F 84.5 °F 62.1 °F 47% 29.86 in 10.0 mi West 6.9 mph - N/A   Partly Cloudy
3:52 PM 86.0 °F 86.1 °F 61.0 °F 43% 29.85 in 10.0 mi West 8.1 mph - N/A   Clear
4:52 PM 84.9 °F 84.8 °F 60.1 °F 43% 29.85 in 10.0 mi West 12.7 mph 17.3 mph N/A   Clear
5:52 PM 81.0 °F 81.7 °F 61.0 °F 50% 29.86 in 10.0 mi WNW 11.5 mph - N/A   Overcast
6:52 PM 79.0 °F - 59.0 °F 50% 29.86 in 10.0 mi WNW 5.8 mph - N/A   Mostly Cloudy
7:52 PM 75.0 °F - 60.1 °F 60% 29.87 in 10.0 mi WNW 3.5 mph - N/A   Clear
8:52 PM 73.9 °F - 59.0 °F 59% 29.90 in 10.0 mi West 4.6 mph - N/A   Partly Cloudy
9:52 PM 73.9 °F - 55.9 °F 53% 29.91 in 10.0 mi Variable 3.5 mph - N/A   Overcast
10:52 PM 72.0 °F - 55.0 °F 55% 29.90 in 10.0 mi West 3.5 mph - N/A   Scattered Clouds
11:52 PM 72.0 °F - 54.0 °F 53% 29.92 in 10.0 mi Calm Calm - N/A   Overcast